Location: Kellogg
(38.0159°N, 90.0546°W)
Time: 06:07:53
(UTC+00:00)

ISS - Visible Passes

Search period start: 15 January 2026 00:00
Search period end: 25 January 2026 00:00
Orbit: 414 x 424 km, 51.6° (Epoch: 14 January)

Date Brightness Start Highest point End Pass type
(mag) Time Alt. Az. Time Alt. Az. Time Alt. Az.
15 Jan -1.8 00:35:24 10° W 00:38:04 22° NNW 00:39:05 19° N visible
15 Jan -2.4 23:47:11 10° W 23:50:12 31° NNW 23:53:15 10° NNE visible
17 Jan -1.2 00:38:19 10° NW 00:39:48 12° NNW 00:40:37 12° N visible
17 Jan -1.4 23:49:39 10° WNW 23:51:49 16° NNW 23:53:59 10° NNE visible
19 Jan -1.1 23:53:18 10° NNW 23:53:34 10° NNW 23:53:49 10° N visible
